Location: Gro�sch�nbrunn
(49.5760°N, 11.8868°E)
Time: 23:30:02
(UTC+00:00)

Cosmos 1269 Rocket - Pass Details

Date: 18 September 2020
Orbit: 772 x 779 km, 74.1° (Epoch: 30 October)

Event Time Altitude Azimuth Distance (km) Brightness Sun altitude
Rises 19:32:52 0° 338° (NNW) 3,274 8.1 -21.6°
Reaches altitude 10° 19:35:18 10° 341° (NNW) 2,343 7.2 -21.9°
Maximum altitude 19:40:35 63° 63° (ENE) 869 4.0 -22.6°
Enters shadow 19:41:24 55° 106° (ESE) 933 4.0 -22.7°
